TimeCDT,TemperatureF,Dew PointF,Humidity,Sea Level PressureIn,VisibilityMPH,Wind Direction,Wind SpeedMPH,Gust SpeedMPH,PrecipitationIn,Events,Conditions,WindDirDegrees,DateUTC
12:15 AM,60.3,58.3,93,30.14,10.0,South,3.5,-,N/A,,Clear,190,2013-09-05 05:15:00
12:35 AM,63.9,59.2,85,30.14,10.0,South,3.5,-,N/A,,Clear,190,2013-09-05 05:35:00
12:55 AM,64.4,58.8,82,30.14,10.0,SSW,4.6,-,N/A,,Clear,200,2013-09-05 05:55:00
1:15 AM,64.0,58.3,82,30.14,10.0,South,3.5,-,N/A,,Clear,190,2013-09-05 06:15:00
1:35 AM,64.4,58.1,80,30.14,10.0,South,3.5,-,N/A,,Clear,190,2013-09-05 06:35:00
1:55 AM,64.0,58.1,81,30.15,10.0,SSW,3.5,-,N/A,,Clear,200,2013-09-05 06:55:00
2:15 AM,61.5,58.6,90,30.15,10.0,Calm,Calm,-,N/A,,Clear,0,2013-09-05 07:15:00
2:35 AM,61.5,58.8,91,30.15,10.0,Calm,Calm,-,N/A,,Clear,0,2013-09-05 07:35:00
2:55 AM,60.1,58.5,94,30.15,10.0,Calm,Calm,-,N/A,,Clear,0,2013-09-05 07:55:00
3:15 AM,61.7,58.5,89,30.16,10.0,Calm,Calm,-,N/A,,Clear,0,2013-09-05 08:15:00
3:35 AM,61.7,57.9,87,30.16,10.0,Calm,Calm,-,N/A,,Clear,0,2013-09-05 08:35:00
3:55 AM,61.3,59.0,92,30.16,10.0,Calm,Calm,-,N/A,,Clear,0,2013-09-05 08:55:00
4:15 AM,59.5,58.3,96,30.16,10.0,Calm,Calm,-,N/A,,Clear,0,2013-09-05 09:15:00
4:35 AM,59.5,58.1,95,30.16,10.0,Calm,Calm,-,N/A,,Clear,0,2013-09-05 09:35:00
4:55 AM,59.9,58.3,94,30.16,10.0,Calm,Calm,-,N/A,,Clear,0,2013-09-05 09:55:00
5:15 AM,59.5,58.5,96,30.16,10.0,Calm,Calm,-,N/A,,Clear,0,2013-09-05 10:15:00
5:35 AM,59.4,58.5,97,30.16,10.0,Calm,Calm,-,N/A,,Clear,0,2013-09-05 10:35:00
5:55 AM,59.4,58.8,98,30.16,10.0,Calm,Calm,-,N/A,,Clear,0,2013-09-05 10:55:00
6:15 AM,58.1,57.7,99,30.16,10.0,Calm,Calm,-,N/A,,Clear,0,2013-09-05 11:15:00
6:35 AM,58.5,58.3,99,30.17,10.0,Calm,Calm,-,N/A,,Clear,0,2013-09-05 11:35:00
6:55 AM,59.4,58.8,98,30.17,10.0,Calm,Calm,-,N/A,,Clear,0,2013-09-05 11:55:00
7:15 AM,60.1,58.3,94,30.18,10.0,Calm,Calm,-,N/A,,Clear,0,2013-09-05 12:15:00
7:35 AM,62.4,60.1,92,30.18,10.0,Calm,Calm,-,N/A,,Clear,0,2013-09-05 12:35:00
7:55 AM,64.9,60.3,85,30.18,10.0,Calm,Calm,-,N/A,,Clear,0,2013-09-05 12:55:00
8:15 AM,67.5,61.0,80,30.19,10.0,Calm,Calm,-,N/A,,Clear,0,2013-09-05 13:15:00
8:35 AM,70.9,61.0,71,30.19,10.0,Calm,Calm,-,N/A,,Clear,0,2013-09-05 13:35:00
8:55 AM,72.5,60.8,67,30.19,10.0,Calm,Calm,-,N/A,,Clear,0,2013-09-05 13:55:00
9:15 AM,75.0,62.1,64,30.19,10.0,Calm,Calm,-,N/A,,Clear,0,2013-09-05 14:15:00
9:35 AM,77.2,62.1,59,30.20,10.0,Calm,Calm,-,N/A,,Clear,0,2013-09-05 14:35:00
9:55 AM,79.2,61.7,55,30.20,10.0,Calm,Calm,-,N/A,,Clear,0,2013-09-05 14:55:00
10:15 AM,79.9,61.0,52,30.20,10.0,Calm,Calm,-,N/A,,Clear,0,2013-09-05 15:15:00
10:35 AM,82.0,60.6,48,30.20,10.0,Calm,Calm,-,N/A,,Clear,0,2013-09-05 15:35:00
10:55 AM,83.5,61.2,47,30.21,10.0,Calm,Calm,-,N/A,,Clear,0,2013-09-05 15:55:00
11:15 AM,84.2,61.3,46,30.21,10.0,Calm,Calm,-,N/A,,Clear,0,2013-09-05 16:15:00
11:35 AM,85.5,61.3,44,30.21,10.0,Calm,Calm,-,N/A,,Clear,0,2013-09-05 16:35:00
11:55 AM,85.3,62.6,46,30.21,10.0,SSE,3.5,-,N/A,,Clear,160,2013-09-05 16:55:00
12:15 PM,86.4,63.1,46,30.20,10.0,Calm,Calm,-,N/A,,Clear,0,2013-09-05 17:15:00
12:35 PM,87.3,64.8,47,30.20,10.0,SE,5.8,-,N/A,,Clear,140,2013-09-05 17:35:00
12:55 PM,86.5,64.0,47,30.19,10.0,ESE,5.8,-,N/A,,Clear,120,2013-09-05 17:55:00
1:15 PM,86.4,63.9,47,30.19,10.0,WNW,3.5,-,N/A,,Clear,300,2013-09-05 18:15:00
1:35 PM,87.1,64.2,46,30.18,10.0,Calm,Calm,-,N/A,,Scattered Clouds,0,2013-09-05 18:35:00
1:55 PM,87.6,65.3,47,30.18,10.0,SE,4.6,-,N/A,,Scattered Clouds,130,2013-09-05 18:55:00
2:15 PM,87.8,64.6,46,30.17,10.0,NW,3.5,-,N/A,,Scattered Clouds,310,2013-09-05 19:15:00
2:35 PM,88.9,64.6,44,30.17,10.0,SSE,4.6,-,N/A,,Mostly Cloudy,160,2013-09-05 19:35:00
2:55 PM,87.6,65.7,48,30.16,10.0,SE,3.5,-,N/A,,Mostly Cloudy,140,2013-09-05 19:55:00
3:15 PM,88.2,65.7,47,30.16,10.0,South,4.6,-,N/A,,Scattered Clouds,170,2013-09-05 20:15:00
3:35 PM,87.8,65.5,47,30.16,10.0,SE,3.5,-,N/A,,Mostly Cloudy,140,2013-09-05 20:35:00
3:55 PM,86.4,65.1,49,30.16,10.0,Calm,Calm,-,N/A,,Scattered Clouds,0,2013-09-05 20:55:00
4:15 PM,87.8,65.5,47,30.16,10.0,Calm,Calm,-,N/A,,Scattered Clouds,0,2013-09-05 21:15:00
4:35 PM,87.8,65.1,47,30.16,10.0,SSE,4.6,-,N/A,,Scattered Clouds,160,2013-09-05 21:35:00
4:55 PM,87.4,65.5,48,30.15,10.0,South,3.5,-,N/A,,Scattered Clouds,170,2013-09-05 21:55:00
5:15 PM,86.7,65.7,49,30.15,10.0,East,3.5,-,N/A,,Scattered Clouds,100,2013-09-05 22:15:00
5:35 PM,86.0,66.2,51,30.15,10.0,East,4.6,-,N/A,,Clear,100,2013-09-05 22:35:00
5:55 PM,85.1,66.4,53,30.15,10.0,ESE,3.5,-,N/A,,Clear,110,2013-09-05 22:55:00
6:15 PM,84.2,66.7,56,30.15,10.0,ESE,4.6,-,N/A,,Clear,110,2013-09-05 23:15:00
6:35 PM,82.8,67.5,60,30.14,10.0,ESE,3.5,-,N/A,,Clear,110,2013-09-05 23:35:00
6:55 PM,80.6,67.3,64,30.14,10.0,East,3.5,-,N/A,,Clear,100,2013-09-05 23:55:00
7:15 PM,79.0,67.5,68,30.15,10.0,ESE,4.6,-,N/A,,Clear,120,2013-09-06 00:15:00
7:35 PM,77.4,67.3,71,30.15,10.0,ESE,4.6,-,N/A,,Clear,120,2013-09-06 00:35:00
7:55 PM,76.5,67.3,73,30.15,10.0,Calm,Calm,-,N/A,,Clear,0,2013-09-06 00:55:00
8:14 PM,75.2,66.2,73,30.15,10.0,East,3.5,-,N/A,,Clear,100,2013-09-06 01:14:00
8:15 PM,76.1,67.1,74,30.15,10.0,East,3.5,-,N/A,,Clear,90,2013-09-06 01:15:00
8:35 PM,75.4,67.3,76,30.16,10.0,East,5.8,-,N/A,,Clear,90,2013-09-06 01:35:00
8:55 PM,75.2,68.2,79,30.17,10.0,East,4.6,-,N/A,,Clear,90,2013-09-06 01:55:00
9:15 PM,74.7,68.9,82,30.17,10.0,East,8.1,-,N/A,,Clear,80,2013-09-06 02:15:00
9:35 PM,73.4,68.9,86,30.18,10.0,East,5.8,-,N/A,,Clear,100,2013-09-06 02:35:00
9:55 PM,72.0,67.3,85,30.18,10.0,East,6.9,-,N/A,,Clear,90,2013-09-06 02:55:00
10:15 PM,70.7,66.4,86,30.18,10.0,East,6.9,-,N/A,,Clear,100,2013-09-06 03:15:00
10:35 PM,69.8,65.5,86,30.19,10.0,East,5.8,-,N/A,,Clear,100,2013-09-06 03:35:00
10:55 PM,69.1,64.9,87,30.19,10.0,East,4.6,-,N/A,,Clear,90,2013-09-06 03:55:00
11:15 PM,68.5,64.0,85,30.19,10.0,East,4.6,-,N/A,,Clear,90,2013-09-06 04:15:00
11:35 PM,68.0,63.3,85,30.19,10.0,East,5.8,-,N/A,,Clear,100,2013-09-06 04:35:00
11:55 PM,67.5,62.6,84,30.19,10.0,East,4.6,-,N/A,,Clear,100,2013-09-06 04:55:00